Home   Weather   Yarmouth County   Past weeks

Flag for Canada Past Weather in Yarmouth County, Nova Scotia, Canada — Yesterday and Last 2 Weeks

Now
32 °F

Mostly cloudy.


Feels Like: 32 °F
Forecast: 33 / 44 °F
Wind: No wind

Location: Yarmouth

Current Time: Dec 7, 2016 at 10:32:24 pm

Latest Report: Dec 7, 2016 at 10:00 pm


Visibility: 15 mi

Pressure: 29.99 "Hg

Humidity: 93%

Dew Point: 30 °F

Location of Yarmouth CountyLocation

Past Weather in Yarmouth County — Graph

°F

Yarmouth County Temperature Yesterday

Maximum temperature yesterday: 32 °F (at 1:00 am)
Minimum temperature yesterday: 28 °F (at 8:00 am)
Average temperature yesterday: 31 °F

High & Low Weather Summary for the Past Weeks

 TemperatureHumidityPressure
High52 °F (Nov 30, 6:00 am)100% (Nov 26, 8:00 am)30.36 "Hg (Nov 26, 8:00 am)
Low23 °F (Dec 5, 7:00 am)65% (Dec 5, 2:00 pm)29.31 "Hg (Dec 1, 3:00 pm)
Average38 °F86%29.95 "Hg
* Reported Nov 22 9:00 pm — Dec 7 9:00 pm, Yarmouth County, Weather by CustomWeather, © 2016

Note: Actual official high and low records may vary slightly from our data, if they occured in-between our weather recording intervals... More about our weather records

Advertising

Yarmouth County Weather History for the Previous 24 Hours

Scroll right to see more
 ConditionsComfort  
Time TempWeatherWind HumidityBarometerVisibility
9:00 pm
Wed, Dec 7
32 °FMostly cloudy.5 mph93%29.98 "Hg15 mi
8:00 pm32 °FMostly cloudy.5 mph93%29.99 "Hg15 mi
7:00 pm32 °FMostly cloudy.6 mph93%29.97 "Hg15 mi
6:00 pm32 °FMostly cloudy.5 mph87%29.96 "Hg15 mi
5:00 pm32 °FMostly cloudy.5 mph93%29.97 "Hg15 mi
4:00 pm32 °FMostly cloudy.2 mph87%29.98 "Hg15 mi
3:00 pm32 °FOvercast.2 mph80%29.97 "Hg15 mi
2:00 pm32 °FMostly cloudy.5 mph80%29.96 "Hg15 mi
1:00 pm32 °FOvercast.7 mph80%29.96 "Hg15 mi
12:00 pm30 °FMostly cloudy.5 mph86%29.99 "Hg15 mi
11:00 am28 °FMostly cloudy.5 mph86%30.00 "Hg15 mi
10:00 am28 °FOvercast.6 mph86%30.00 "Hg15 mi
9:00 am27 °FOvercast.5 mph93%30.00 "Hg15 mi
8:00 am27 °FOvercast.7 mph93%29.97 "Hg15 mi
7:00 am27 °FPassing clouds.6 mph93%29.97 "Hg15 mi
6:00 am27 °FPassing clouds.7 mph86%30.01 "Hg15 mi
5:00 am27 °FPassing clouds.3 mph93%30.02 "Hg15 mi
4:00 am27 °FPassing clouds.5 mph93%30.00 "Hg15 mi
3:00 am27 °FPassing clouds.6 mph93%30.00 "Hg15 mi
2:00 am27 °FPassing clouds.5 mph93%30.00 "Hg15 mi
1:00 am25 °FPassing clouds.6 mph100%30.01 "Hg15 mi
12:00 am27 °FPassing clouds.5 mph93%30.03 "Hg15 mi
11:00 pm
Tue, Dec 6
28 °FPassing clouds.8 mph86%30.03 "Hg15 mi
10:00 pm30 °FOvercast.10 mph86%30.02 "Hg15 mi
Weather by CustomWeather, © 2016

See weather overviewHow to use our weather pages